Location: Newark
(41.5333°N, 14.5500°E)
Time: 11:25:03
(UTC+00:00)

Hubble Space Telescope - Pass Details

Date: 31 January 2020
Orbit: 536 x 540 km, 28.5° (Epoch: 26 February)

Event Time Altitude Azimuth Distance (km) Brightness Sun altitude
Rises 05:25:06 0° 225° (SW) 2,664 4.0 -9.7°
Reaches altitude 10° 05:28:47 10° 191° (SSW) 1,776 3.5 -9.0°
Maximum altitude 05:30:10 12° 171° (S) 1,681 3.6 -8.8°
Drops below altitude 10° 05:31:34 10° 151° (SSE) 1,777 4.1 -8.5°
Sets 05:35:15 0° 118° (ESE) 2,669 6.4 -7.9°
